Wayne, NE

8:17 PM CST on February 20, 2017 (GMT -0600)
Wayne Municipal

Weather History for KLCG - December, 2011

Change the Weather History Date:

Monday, December 12, 2011

  Actual Average (KOFK) Record (KOFK)
Temperature  
Mean Temperature 34 °F -  
Max Temperature 37 °F 37 °F 65 °F (1921)
Min Temperature 30 °F 14 °F -25 °F (1932)
Degree Days  
Heating Degree Days 32    
Moisture  
Dew Point 33 °F    
Average Humidity 98    
Maximum Humidity 100    
Minimum Humidity 93    
Precipitation  
Precipitation 0.00 in - - ()
Sea Level Pressure  
Sea Level Pressure 30.16 in    
Wind  
Wind Speed 9 mph (West)    
Max Wind Speed 16 mph    
Max Gust Speed -    
Visibility 6 miles    
Events      
Averages and records for this station are not official NWS values.
T = Trace of Precipitation, MM = Missing Value Source: NWS Daily Summary

Daily Weather History Graph

Daily Weather History Graph

Search for Another Location

Airport or City:

Trip Planner

Search our weather history database for the weather conditions in past years. The results will help you decide how hot, cold, wet, or windy it might be!

Date:

Astronomy

Dec. 12, 2011 Rise Set
Actual Time 7:47 AM CST 4:55 PM CST
Civil Twilight 7:15 AM CST 5:27 PM CST
Nautical Twilight 6:40 AM CST 6:02 PM CST
Astronomical Twilight 6:06 AM CST 6:36 PM CST
Moon 7:09 PM CST (12/12) 9:19 AM CST (12/12)
Length of Visible Light 10h 12m
Length of Day
9h 08m
Waning Gibbous, 95% of the Moon is Illuminated
Dec 12
Waning Gibbous
Dec 17
Last Quarter
Dec 24
New
Jan 1
First Quarter
Jan 9
Full

Hourly Weather History & Observations

Time (CST) Temp. Windchill Dew Point Humidity Pressure Visibility Wind Dir Wind Speed Gust Speed Precip Events Conditions
1:35 AM 35.6 °F 26.6 °F 35.6 °F 100% 30.03 in 5.0 mi South 13.8 mph - N/A   Overcast
1:55 AM 37.4 °F 28.9 °F 35.6 °F 93% 30.02 in 5.0 mi South 13.8 mph - N/A   Overcast
2:15 AM 35.6 °F 26.6 °F 35.6 °F 100% 30.02 in 4.0 mi South 13.8 mph - N/A   Overcast
2:55 AM 35.6 °F 25.9 °F 35.6 °F 100% 30.03 in 5.0 mi South 16.1 mph - N/A   Overcast
3:15 AM 35.6 °F 28.0 °F 35.6 °F 100% 30.04 in 5.0 mi South 10.4 mph - N/A   Overcast
3:35 AM 35.6 °F 28.0 °F 35.6 °F 100% 30.03 in 5.0 mi South 10.4 mph - N/A   Overcast
3:55 AM 35.6 °F 27.1 °F 35.6 °F 100% 30.03 in 4.0 mi South 12.7 mph - N/A   Overcast
4:15 AM 35.6 °F 27.1 °F 35.6 °F 100% 30.03 in 5.0 mi South 12.7 mph - N/A   Overcast
4:35 AM 35.6 °F 28.0 °F 35.6 °F 100% 30.03 in 5.0 mi South 10.4 mph - N/A   Overcast
4:55 AM 35.6 °F 28.6 °F 35.6 °F 100% 30.03 in 5.0 mi South 9.2 mph - N/A   Overcast
5:15 AM 35.6 °F 29.9 °F 35.6 °F 100% 30.04 in 4.0 mi South 6.9 mph - N/A   Overcast
5:35 AM 35.6 °F 29.2 °F 35.6 °F 100% 30.05 in 5.0 mi South 8.1 mph - N/A   Overcast
5:55 AM 35.6 °F 29.2 °F 35.6 °F 100% 30.05 in 5.0 mi SSW 8.1 mph - N/A   Overcast
6:35 AM 35.6 °F 30.7 °F 35.6 °F 100% 30.06 in 5.0 mi South 5.8 mph - N/A   Overcast
7:15 AM 35.6 °F 29.9 °F 35.6 °F 100% 30.07 in 5.0 mi South 6.9 mph - N/A   Overcast
7:35 AM 35.6 °F 29.2 °F 33.8 °F 93% 30.07 in 4.0 mi SSW 8.1 mph - N/A   Overcast
7:55 AM 33.8 °F 27.0 °F 33.8 °F 100% 30.08 in 3.0 mi SSW 8.1 mph - N/A   Overcast
8:15 AM 33.8 °F 27.7 °F 33.8 °F 100% 30.09 in 3.0 mi SSW 6.9 mph - N/A   Overcast
9:15 AM 35.6 °F 28.6 °F 35.6 °F 100% 30.10 in 4.0 mi SSW 9.2 mph - N/A   Overcast
9:35 AM 35.6 °F 29.2 °F 35.6 °F 100% 30.10 in 4.0 mi SSW 8.1 mph - N/A   Overcast
10:15 AM 37.4 °F 31.4 °F 35.6 °F 93% 30.12 in 5.0 mi SSW 8.1 mph - N/A   Overcast
10:35 AM 37.4 °F 30.8 °F 35.6 °F 93% 30.13 in 5.0 mi SSW 9.2 mph - N/A   Overcast
10:55 AM 37.4 °F 32.1 °F 35.6 °F 93% 30.14 in 5.0 mi SW 6.9 mph - N/A   Overcast
11:15 AM 37.4 °F 31.4 °F 35.6 °F 93% 30.15 in 5.0 mi SW 8.1 mph - N/A   Overcast
11:55 AM 37.4 °F 32.1 °F 35.6 °F 93% 30.14 in 5.0 mi WSW 6.9 mph - N/A   Overcast
12:15 PM 35.6 °F 27.5 °F 33.8 °F 93% 30.15 in 7.0 mi WNW 11.5 mph - N/A   Overcast
12:35 PM 33.8 °F 27.0 °F 32.0 °F 93% 30.15 in 10.0 mi NW 8.1 mph - N/A   Overcast
12:55 PM 33.8 °F 26.4 °F 32.0 °F 93% 30.15 in 10.0 mi NW 9.2 mph - N/A   Overcast
1:35 PM 33.8 °F 27.7 °F 32.0 °F 93% 30.15 in 10.0 mi NW 6.9 mph - N/A   Overcast
1:55 PM 33.8 °F 27.7 °F 32.0 °F 93% 30.15 in 10.0 mi NW 6.9 mph - N/A   Overcast
2:15 PM 33.8 °F 28.6 °F 32.0 °F 93% 30.15 in 10.0 mi NNW 5.8 mph - N/A   Overcast
2:35 PM 33.8 °F 27.0 °F 32.0 °F 93% 30.16 in 10.0 mi NW 8.1 mph - N/A   Overcast
2:55 PM 32.0 °F 24.8 °F 32.0 °F 100% 30.16 in 10.0 mi NW 8.1 mph - N/A   Overcast
3:15 PM 32.0 °F 24.8 °F 30.2 °F 93% 30.18 in 10.0 mi NW 8.1 mph - N/A   Overcast
3:35 PM 32.0 °F 25.6 °F 30.2 °F 93% 30.18 in 10.0 mi WNW 6.9 mph - N/A   Overcast
3:55 PM 32.0 °F 26.4 °F 30.2 °F 93% 30.19 in 10.0 mi NW 5.8 mph - N/A   Overcast
4:15 PM 32.0 °F 24.8 °F 30.2 °F 93% 30.20 in 7.0 mi NW 8.1 mph - N/A   Overcast
4:35 PM 32.0 °F 25.6 °F 30.2 °F 93% 30.21 in 7.0 mi NW 6.9 mph - N/A   Overcast
4:55 PM 32.0 °F 26.4 °F 30.2 °F 93% 30.21 in 5.0 mi NNW 5.8 mph - N/A   Overcast
5:15 PM 30.2 °F 23.4 °F 30.2 °F 100% 30.21 in 4.0 mi NNW 6.9 mph - N/A   Overcast
5:35 PM 30.2 °F 22.6 °F 30.2 °F 100% 30.22 in 5.0 mi NNW 8.1 mph - N/A   Overcast
5:55 PM 30.2 °F 22.6 °F 30.2 °F 100% 30.23 in 5.0 mi NW 8.1 mph - N/A   Overcast
6:15 PM 30.2 °F 24.3 °F 28.4 °F 93% 30.23 in 5.0 mi NW 5.8 mph - N/A   Overcast
6:35 PM 30.2 °F 25.4 °F 30.2 °F 100% 30.25 in 4.0 mi NW 4.6 mph - N/A   Overcast
6:55 PM 30.2 °F 25.4 °F 30.2 °F 100% 30.25 in 4.0 mi NNW 4.6 mph - N/A   Overcast
7:15 PM 30.2 °F 24.3 °F 30.2 °F 100% 30.26 in 4.0 mi WNW 5.8 mph - N/A   Overcast
7:35 PM 30.2 °F 25.4 °F 30.2 °F 100% 30.26 in 5.0 mi NW 4.6 mph - N/A   Overcast
7:55 PM 30.2 °F - 30.2 °F 100% 30.26 in 5.0 mi Calm Calm - N/A   Overcast
8:15 PM 30.2 °F - 30.2 °F 100% 30.26 in 4.0 mi Calm Calm - N/A   Overcast
8:35 PM 30.2 °F - 30.2 °F 100% 30.26 in 5.0 mi Calm Calm - N/A   Overcast
8:55 PM 30.2 °F - 30.2 °F 100% 30.26 in 4.0 mi Calm Calm - N/A   Overcast
9:15 PM 30.2 °F - 30.2 °F 100% 30.26 in 4.0 mi Calm Calm - N/A   Overcast
9:35 PM 30.2 °F 26.7 °F 30.2 °F 100% 30.27 in 4.0 mi NW 3.5 mph - N/A   Overcast
10:15 PM 30.2 °F - 30.2 °F 100% 30.27 in 4.0 mi Calm Calm - N/A   Overcast
10:35 PM 30.2 °F - 30.2 °F 100% 30.27 in 3.0 mi Calm Calm - N/A   Overcast
10:55 PM 30.2 °F 26.7 °F 30.2 °F 100% 30.27 in 4.0 mi North 3.5 mph - N/A   Overcast
11:15 PM 30.2 °F 26.7 °F 30.2 °F 100% 30.27 in 3.0 mi NW 3.5 mph - N/A   Overcast
11:35 PM 30.2 °F 26.7 °F 30.2 °F 100% 30.27 in 4.0 mi NW 3.5 mph - N/A   Overcast
11:55 PM 30.2 °F 26.7 °F 30.2 °F 100% 30.27 in 4.0 mi NNW 3.5 mph - N/A   Overcast